Skip Page Navigation
NASA JPL Caltech
NASA Logo - Jet Propulsion Laboratory + View the NASA Portal
+ Center for Near-Earth Object Studies
JPL Home Earth Solar System Stars & Galaxies Technology
JPL Solar System Dynamics
BODIES ORBITS EPHEMERIDES TOOLS PHYSICAL DATA DISCOVERY FAQ SITE MAP
JPL Small-Body Database Browser
Search: [ help ]  
227789 (2006 XG58)
Classification: Main-belt Asteroid          SPK-ID: 2227789
Ephemeris | Orbit Diagram | Orbital Elements | Mission Design | Physical Parameters | Discovery Circumstances ]

[ show orbit diagram ]
Orbital Elements at Epoch 2459200.5 (2020-Dec-17.0) TDB
Reference: JPL 16 (heliocentric ecliptic J2000)
 Element Value Uncertainty (1-sigma)   Units 
e .1641752296342774 3.7445e-08  
a 2.368390656835562 1.4038e-08 au
q 1.979559576885906 8.7206e-08 au
i 3.947729068272316 4.2841e-06 deg
node 65.64104146002677 6.3405e-05 deg
peri 256.5630584149699 6.4963e-05 deg
M 66.9543477410699 1.3682e-05 deg
tp 2458952.897675015005
(2020-Apr-13.39767502)
5.0019e-05 TDB
period 1331.307674586179
3.64
1.1836e-05
3.241e-08
d
yr
n .2704108200321925 2.4041e-09 deg/d
Q 2.757221736785218 1.6342e-08 au
  Orbit Determination Parameters
   # obs. used (total)      395  
   data-arc span      6611 days (18.10 yr)  
   first obs. used      2002-12-05  
   last obs. used      2021-01-10  
   planetary ephem.      DE441  
   SB-pert. ephem.      SB441-N16  
   condition code      0  
   norm. resid. RMS      .53852  
   source      ORB  
   producer      Otto Matic  
   solution date      2021-Apr-14 00:41:10  

Additional Information
 Earth MOID = .969595 au 
 Jupiter MOID = 2.55111 au 
 T_jup = 3.525 
[ show covariance matrix ]

Ephemeris | Orbit Diagram | Orbital Elements | Mission Design | Physical Parameters | Discovery Circumstances ]

Physical Parameter Table
Parameter Symbol Value Units Sigma Reference Notes
absolute magnitude H 16.7   n/a MPO533588  

227789 (2006 XG58)          Discovered 2006-Dec-14 by Spacewatch at Kitt Peak
Reference: 20091202/Numbers.arcLast Updated: 2009-12-04

Alternate Designations
 2006 XG58 = 2002 XE28 
Ephemeris | Orbit Diagram | Orbital Elements | Mission Design | Physical Parameters | Discovery Circumstances ]
ABOUT SSD CREDITS/AWARDS PRIVACY/COPYRIGHT GLOSSARY LINKS
FirstGov 2021-Apr-19 07:41 UT
(server date/time)  
NASA Home Page
Site Manager:   Ryan S. Park
Webmaster  Alan B. Chamberlin